Regional Weather Roundup
Issued by NWS

Home | Current Version | Previous Version | Text Only | Print | Product List | Glossary On
Versions: 1 2 3 4 5 6 7 8 9 10 11 12 13 14 15 16 17 18 19 20 21 22 23 24 25 26 27 28 29 30 31 32 33 34 35 36 37 38 39 40 41 42 43 44 45 46 47 48 49 50
000
ASUS45 KPSR 021210
RWRAZ

ARIZONA HOURLY REGIONAL WEATHER ROUNDUP
NATIONAL WEATHER SERVICE PHOENIX AZ
500 AM MST SUN AUG 02 2015

NOTE: FAIR INDICATES FEW OR NO CLOUDS BELOW 12,000 FEET WITH NO
SIGNIFICANT WEATHER AND/OR OBSTRUCTIONS TO VISIBILITY.

AZZ001>003-036-021300-
NORTHWEST ARIZONA

CITY           SKY/WX    TMP DP  RH WIND       PRES   REMARKS
BULLHEAD CITY  CLEAR     84  57  39 CALM      29.80S
KINGMAN        MOCLDY    73  54  51 CALM      30.00R
6HR MIN TEMP:  69; 6HR MAX TEMP:  76;

$$

AZZ004>008-015-016-018-021300-
NORTH CENTRAL ARIZONA

CITY           SKY/WX    TMP DP  RH WIND       PRES   REMARKS
GRAND CANYON   MOCLDY    57  54  89 CALM      30.20F
6HR MIN TEMP:  55; 6HR MAX TEMP:  62; 6HR PCP:  0.01;

WILLIAMS       PTCLDY    61  54  77 SE9       30.28S
PRESCOTT       PTCLDY    63  57  81 S5        30.10S
6HR MIN TEMP:  63; 6HR MAX TEMP:  69;

FLAGSTAFF      MOCLDY    55  52  89 CALM      30.25S
6HR MIN TEMP:  54; 6HR MAX TEMP:  58;

PAYSON         PTCLDY    63  57  82 CALM      30.16R
PAGE           CLOUDY    76  55  48 SE6       30.03R
6HR MIN TEMP:  76; 6HR MAX TEMP:  83;

$$

AZZ009>014-017-021300-
NORTHEAST ARIZONA

CITY           SKY/WX    TMP DP  RH WIND       PRES   REMARKS
WINSLOW        CLOUDY    70  53  54 E7        30.11S
6HR MIN TEMP:  70; 6HR MAX TEMP:  73;

SAINT JOHNS    CLOUDY    61  57  87 SE7       30.16F
6HR MIN TEMP:  61; 6HR MAX TEMP:  68; 6HR PCP:  0.13;

SHOW LOW       CLOUDY    55  52  88 CALM      30.22S
$$

AZZ023-021300-
GREATER PHOENIX AREA

CITY           SKY/WX    TMP DP  RH WIND       PRES   REMARKS
PHOENIX        PTCLDY    87  65  47 E7        29.80S
6HR MIN TEMP:  86; 6HR MAX TEMP:  95;

LUKE AFB       PTCLDY    82  66  57 CALM      29.80R
DEER VALLEY    CLEAR     86  61  42 E6        29.82S
6HR MIN TEMP:  86; 6HR MAX TEMP:  94;

SCOTTSDALE     CLEAR     86  62  44 CALM      29.85S
6HR MIN TEMP:  86; 6HR MAX TEMP:  94;

MESA-GATEWAY   PTCLDY    81  64  57 SE7       29.85S
$$

AZZ027-028-021300-
SOUTHWEST MARICOPA COUNTY AND PINAL COUNTY

CITY           SKY/WX    TMP DP  RH WIND       PRES   REMARKS
CASA GRANDE    CLEAR     82  61  47 CALM      29.83S
6HR MIN TEMP:  82; 6HR MAX TEMP:  90;

GILA BEND      FAIR      82  58  44 S8        29.78S
6HR MIN TEMP:  82; 6HR MAX TEMP:  92;

$$

AZZ503-504-507>509-021300-
SOUTHEAST ARIZONA

CITY           SKY/WX    TMP DP  RH WIND       PRES   REMARKS
TUCSON         PTCLDY    75  65  70 SE9       29.96R
6HR MIN TEMP:  75; 6HR MAX TEMP:  82;

DAVIS-MONTHAN  CLEAR     75  63  65 S8        29.95R
6HR MIN TEMP:  75; 6HR MAX TEMP:  80;

NOGALES        MOCLDY    68  63  84 CALM      30.05S
6HR MIN TEMP:  68; 6HR MAX TEMP:  75;

SIERRA VISTA   CLOUDY    67  61  81 SW2       30.11S
6HR MIN TEMP:  66; 6HR MAX TEMP:  70; 6HR PCP: TRACE;

DOUGLAS          N/A    N/A N/A N/A MISG      30.07S
SAFFORD        CLOUDY    75  64  68 NW3       29.98R
6HR MIN TEMP:  73; 6HR MAX TEMP:  85; 6HR PCP: TRACE;

$$

AZZ020-021-025-026-031-021300-
SOUTHWEST ARIZONA

CITY           SKY/WX    TMP DP  RH WIND       PRES   REMARKS
YUMA           CLEAR     89  60  37 N3        29.73S
6HR MIN TEMP:  89; 6HR MAX TEMP:  99;

$$

CAZ031-033-041-043-047-048-061-021300-
SOUTHERN CALIFORNIA

CITY           SKY/WX    TMP DP  RH WIND       PRES   REMARKS
DOWNTOWN L.A.  CLEAR     67  63  87 CALM      29.88S
6HR MIN TEMP:  67; 6HR MAX TEMP:  69;

L.A. AIRPORT   PTCLDY    68  64  87 CALM      29.89S
6HR MIN TEMP:  68; 6HR MAX TEMP:  69;

SAN DIEGO      MOCLDY    69  62  78 CALM      29.89S
6HR MIN TEMP:  69; 6HR MAX TEMP:  71;

BURBANK        CLEAR     68  61  78 CALM      29.89S
6HR MIN TEMP:  68; 6HR MAX TEMP:  71;

ONTARIO        CLEAR     67  62  84 W3        29.89F
6HR MIN TEMP:  66; 6HR MAX TEMP:  72;

RIVERSIDE      CLEAR     68  62  81 VRB3      29.89S
6HR MIN TEMP:  68; 6HR MAX TEMP:  73;

PALM SPRINGS   CLEAR     84  59  42 W6        29.78S
6HR MIN TEMP:  83; 6HR MAX TEMP:  94;

EL CENTRO NAS  CLEAR     82  40  22 CALM      29.73S
6HR MIN TEMP:  82; 6HR MAX TEMP:  93;

IMPERIAL       CLEAR     85  42  22 NE3       29.71S
6HR MIN TEMP:  81; 6HR MAX TEMP:  93;

BLYTHE         CLEAR     85  58  39 W3        29.76S
6HR MIN TEMP:  84; 6HR MAX TEMP:  93;

NEEDLES        CLEAR     83  58  42 W6        29.81S
6HR MIN TEMP:  83; 6HR MAX TEMP:  90;

$$

NVZ020-UTZ003-021300-
SOUTHERN NEVADA-UTAH

CITY           SKY/WX    TMP DP  RH WIND       PRES   REMARKS
LAS VEGAS      PTCLDY    79  54  41 CALM      29.86F
6HR MIN TEMP:  78; 6HR MAX TEMP:  84;

SALT LAKE CITY PTCLDY    67  43  41 SE6       29.99R
6HR MIN TEMP:  66; 6HR MAX TEMP:  77;

$$

NMZ009-TXZ055-021300-
NEW MEXICO-WEST TEXAS

CITY           SKY/WX    TMP DP  RH WIND       PRES   REMARKS
ALBUQUERQUE    MOCLDY    67  59  75 NE3       30.17S
6HR MIN TEMP:  66; 6HR MAX TEMP:  68; 6HR PCP: TRACE;

EL PASO        MOCLDY    76  60  57 SE5       30.03R
6HR MIN TEMP:  75; 6HR MAX TEMP:  83;

$$


........................KEY........................
SKY/WX - SKY CONDITION/WEATHER
TMP    - TEMPERATURE IN FAHRENHEIT
DP     - DEW POINT IN FAHRENHEIT
RH     - RELATIVE HUMIDITY IN PERCENT
WIND   - DIRECTION AND SPEED IN MILES PER HOUR (MPH)
VRB    - VARIABLE WIND DIRECTION
PRES   - MEAN SEA LEVEL PRESSURE IN INCHES OF MERCURY
         F - FALLING PRESSURE   R - RISING PRESSURE
         S - STEADY PRESSURE
VSB    - VISIBILITY IN MILES
HX     - HEAT INDEX IN FAHRENHEIT
WCI    - WIND CHILL INDEX IN FAHRENHEIT
TC     - TEMPERATURE IN CELSIUS WHICH IS ALSO KNOWN AS
         TEMPERATURE IN CENTIGRADE
AFB    - AIR FORCE BASE
         LUKE AFB IS LUKE AIR FORCE BASE
         DAVIS-MONTHAN IS DAVIS-MONTHAN AIR FORCE BASE
NAS    - NAVAL AIR STATION
         EL CENTRO NAS IS EL CENTRO NAVAL AIR STATION
N/A    - NOT AVAILABLE



USA.gov is the U.S. government's official web portal to all federal, state and local government web resources and services.